This demonstration page uses our WeatherBlox Daily Observations layout. Learn more.

Left ArrowRight Arrow

31.84235, -102.49876

Hourly Observations for July 31, 2022

Temp ( °F °C ) Dew Point ( °F °C ) Humidity (%) Winds ( mph kmh ) Pressure ( in mb ) Visibility ( mi km ) Precip ( " mm )
12:53 am 00:53 Clear 86 30 53 11.7 32 32 S 14 22 29.96 1015 10 16 0.00 0.00
1:53 am 01:53 Clear 85 29.4 53 11.7 33 33 S 15 24 29.96 1014 10 16 0.00 0.00
2:53 am 02:53 Clear 84 28.9 52 11.1 33 33 S 12 19 29.94 1014 10 16 0.00 0.00
3:53 am 03:53 Clear 83 28.3 51 10.6 33 33 S 13 20 29.94 1014 10 16 0.00 0.00
4:53 am 04:53 Clear 82 27.8 50 10 33 33 S 15 24 29.93 1014 10 16 0.00 0.00
5:53 am 05:53 Clear 80 26.7 49 9.4 34 34 S 13 20 29.94 1014 10 16 0.00 0.00
6:53 am 06:53 Clear 79 26.1 51 10.6 38 38 S 10 17 29.96 1015 10 16 0.00 0.00
7:53 am 07:53 Sunny 78 25.6 53 11.7 42 42 S 9 15 29.97 1015 10 16 0.00 0.00
8:53 am 08:53 Sunny 81 27.2 55 12.8 41 41 S 15 24 29.99 1016 10 16 0.00 0.00
9:53 am 09:53 Sunny 84 28.9 56 13.3 38 38 S 18 30 29.99 1016 10 16 0.00 0.00
10:53 am 10:53 Sunny 88 31.1 56 13.3 34 34 S 17 28 29.98 1015 10 16 0.00 0.00
11:53 am 11:53 Sunny 91 32.8 56 13.3 31 31 S 16 26 29.98 1015 10 16 0.00 0.00
12:53 pm 12:53 Sunny 93 33.9 55 12.8 28 28 SSW 14 22 29.97 1015 10 16 0.00 0.00
1:53 pm 13:53 Sunny 96 35.6 54 12.2 24 24 SSW 12 19 29.95 1014 10 16 0.00 0.00
2:53 pm 14:53 Sunny 98 36.7 53 11.7 22 22 SSE 14 22 29.93 1013 10 16 0.00 0.00
3:53 pm 15:53 Sunny 98 36.7 52 11.1 21 21 S 10 17 29.91 1013 10 16 0.00 0.00
4:53 pm 16:53 Sunny 98 36.7 50 10 20 20 SE 12 19 29.89 1012 10 16 0.00 0.00
5:53 pm 17:53 Sunny 98 36.7 49 9.4 19 19 S 10 17 29.88 1012 10 16 0.00 0.00
6:53 pm 18:53 Sunny 97 36.1 49 9.4 20 20 S 15 24 29.88 1012 10 16 0.00 0.00
7:53 pm 19:53 Sunny 96 35.6 45 7.2 17 17 S 14 22 29.88 1012 10 16 0.00 0.00
8:53 pm 20:53 Clear 93 33.9 45 7.2 19 19 SSE 14 22 29.88 1012 10 16 0.00 0.00
9:53 pm 21:53 Clear 91 32.8 44 6.7 20 20 SSE 13 20 29.90 1012 10 16 0.00 0.00
10:53 pm 22:53 Clear 89 31.7 44 6.7 21 21 S 15 24 29.92 1013 10 16 0.00 0.00
11:53 pm 23:53 Clear 86 30 47 8.3 26 26 S 15 24 29.93 1014 10 16 0.00 0.00

Powered by AerisWeather